Home > Weather > Babylon > Past weeks

Flag for U.S.A. Weather for the Past 2 Weeks in Babylon, New York, U.S.A.

Now
8 °F

Clear.


Feels Like: -10 °F
Forecast: 5 / 17 °F
Wind: 16 mph from Northwest

Location: Republic Airport

Current Time: Feb 14, 2016 at 12:57:55 AM

Latest Report: Feb 13, 2016 at 11:53 PM


Visibility: 10 mi

Pressure: 30.29 "Hg

Humidity: 32%

Dew point: -16 °F

Location of BabylonLocation

Historic Weather in Babylon — Graph

°F

Babylon Temperature Yesterday

Maximum temperature yesterday: 23 °F (at 12:53 AM)
Minimum temperature yesterday: 7 °F (at 9:53 PM)
Average temperature yesterday: 18 °F

High & Low Weather Summary for the Past Weeks

 TemperatureHumidityPressure
High61 °F (Feb 1, 11:53 AM)100% (Feb 7, 7:53 AM)30.44 "Hg (Feb 7, 7:53 AM)
Low7 °F (Feb 13, 9:53 PM)29% (Feb 13, 11:53 AM)29.57 "Hg (Feb 9, 1:53 PM)
Average35 °F65%29.99 "Hg
* Reported Jan 29 10:53 PM — Feb 13 10:53 PM, Babylon, Weather by CustomWeather, © 2016

Note: Actual official high and low records may vary slightly from our data, if they occured in-between our weather recording intervals... More about our weather records

Advertising

Babylon Weather History for the Previous 24 Hours

 ConditionsComfort  
Time TempWeatherWind HumidityBarometerVisibility
10:53 PM
Sat, Feb 13
8 °FClear.18 mph32%30.30 "Hg10 mi
9:53 PM7 °FClear.16 mph30%30.31 "Hg10 mi
8:53 PM8 °FClear.22 mph32%30.30 "Hg10 mi
7:53 PM11 °FPassing clouds.18 mph33%30.28 "Hg10 mi
6:53 PM11 °FClear.15 mph31%30.25 "Hg10 mi
5:53 PM11 °FClear.16 mph29%30.21 "Hg10 mi
4:53 PM13 °FSunny.21 mph30%30.16 "Hg10 mi
3:53 PM16 °FPassing clouds.18 mph29%30.12 "Hg10 mi
2:53 PM18 °FPassing clouds.16 mph31%30.07 "Hg10 mi
1:53 PM20 °FPartly sunny.20 mph31%30.04 "Hg10 mi
12:53 PM22 °FScattered clouds.18 mph31%30.03 "Hg10 mi
11:53 AM22 °FPassing clouds.17 mph29%30.02 "Hg10 mi
10:53 AM23 °FSunny.17 mph30%30.01 "Hg10 mi
9:53 AM23 °FSunny.18 mph33%29.99 "Hg10 mi
8:53 AM23 °FSunny.24 mph36%29.97 "Hg10 mi
7:53 AM23 °FSunny.12 mph53%29.93 "Hg10 mi
6:53 AM21 °FSunny.12 mph65%29.90 "Hg10 mi
5:53 AM21 °FClear.12 mph65%29.89 "Hg10 mi
4:53 AM21 °FClear.8 mph65%29.87 "Hg10 mi
3:53 AM22 °FClear.9 mph62%29.87 "Hg10 mi
2:53 AM22 °FOvercast.10 mph66%29.88 "Hg10 mi
1:53 AM23 °FMostly cloudy.8 mph60%29.89 "Hg10 mi
12:53 AM23 °FOvercast.10 mph55%29.91 "Hg10 mi
Weather by CustomWeather, © 2016

See weather overviewHow to use our weather pages